This is the latest recevied weather packets stored in our database for station/object N4RCT. If no packets are shown the sender has not sent any weather packets the latest 10 day(s).
| Time | Temp. | Humidity | Pressure | Rain* | Wind** | Luminosity | Snow |
|---|---|---|---|---|---|---|---|
| 1777901390 | 13.33° C | 78% | 1017.3 hPa | 0 mm | - | 379 W/m² | - |
| 1777901088 | 13.89° C | 81% | 1017.4 hPa | 0 mm | - | 361 W/m² | - |
| 1777900785 | 14.44° C | 79% | 1017.4 hPa | 0 mm | - | 309 W/m² | - |
| 1777900483 | 14.44° C | 74% | 1017.2 hPa | 0 mm | - | 278 W/m² | - |
| 1777900179 | 13.89° C | 73% | 1017.3 hPa | 0 mm | - | 231 W/m² | - |
| 1777899876 | 13.89° C | 74% | 1017.2 hPa | 0 mm | - | 238 W/m² | - |
| 1777899572 | 13.89° C | 75% | 1017.1 hPa | 0 mm | - | 238 W/m² | - |
| 1777899270 | 13.89° C | 75% | 1017.4 hPa | 0 mm | - | 238 W/m² | - |
| 1777898967 | 13.33° C | 79% | 1017.2 hPa | 0 mm | - | 213 W/m² | - |
| 1777898664 | 12.78° C | 79% | 1017.3 hPa | 0 mm | - | 158 W/m² | - |
| 1777898361 | 12.22° C | 82% | 1017.3 hPa | 0 mm | - | 140 W/m² | - |
| 1777898060 | 12.22° C | 81% | 1017.2 hPa | 0 mm | - | 100 W/m² | - |
| 1777897755 | 11.67° C | 82% | 1016.9 hPa | 0 mm | - | 90 W/m² | - |
| 1777897452 | 10.56° C | 88% | 1017.3 hPa | 0 mm | - | 90 W/m² | - |
| 1777897148 | 10° C | 89% | 1017.2 hPa | 0 mm | - | 71 W/m² | - |
| 1777896844 | 8.89° C | 93% | 1017.2 hPa | 0 mm | - | 58 W/m² | - |
| 1777896541 | 7.78° C | 93% | 1017.2 hPa | 0 mm | - | 50 W/m² | - |
| 1777896238 | 7.78° C | 95% | 1017.4 hPa | 0 mm | - | 54 W/m² | - |
| 1777895936 | 7.78° C | 97% | 1017.4 hPa | 0 mm | - | 49 W/m² | - |
| 1777895634 | 7.22° C | 97% | 1017.3 hPa | 0 mm | - | 43 W/m² | - |
| 1777895331 | 6.67° C | 99% | 1017.4 hPa | 0 mm | - | 40 W/m² | - |
| 1777895029 | 5.56° C | 99% | 1017.3 hPa | 0 mm | - | 35 W/m² | - |
| 1777894726 | 5.56° C | 98% | 1017.2 hPa | 0 mm | - | 28 W/m² | - |
| 1777894422 | 5.56° C | 98% | 1017.5 hPa | 0 mm | - | 24 W/m² | - |
| 1777894120 | 5° C | 98% | 1017.4 hPa | 0 mm | - | 22 W/m² | - |
* Rain latest hour (hover to see other rain measurements)
** Current wind speed in m/s (hover to see current wind gust speed)